Starlink 31561

operational
NORAD ID: 59352 Int'l Des: 2024-060 Owner: SPXS Country: US Constellation: starlink
LEOCIRCULAR

About Starlink 31561

Description loading...

Live Position

Loading 3D Globe...

Upcoming Passes

Altitude History

Altitude vs Time

uPlot chart will show altitude changes over time

Two-Line Element Set

1 59352U 24060E 25259.14660923 -.00000079 00000-0 66366-5 0 9999
2 59352 43.0005 165.1624 0001194 270.3359 89.7356 15.27609467 83373
Epoch: Sep 16, 2025 • Age: 16 hours

Current Status

Altitude 484.9 km
Velocity 7.63 km/s
Sub-Earth Point 34.22°N, 79.87°W
Launch Date Mar 31, 2024
Age 1.4 years
Type internet

Technical Details

Classification Payload
Mass 730.00 kg
Dry Mass 700.00 kg
Total Mass 730.00 kg
Length 0.30 m
Diameter 4.10 m
Span 29.00 m
Shape Box + pan
Manufacturer SPXS
Bus Type Starlink V2M
Phase Status In Orbit
Owner/State SPXS/US

Large Constellations

Loading constellations...